RYR7589 LGSA-EPWR

Flight info

Callsign RYR7589
Flight time 2h 39m
Altitude 36000
Route SOKRI UY151 VELOP DCT DDM DCT KUGGI DCT SKP DCT MAKED DCT LONTA UM749 UDVAR DCT VASER DCT PARAK DCT LITKU DCT REGLI L617 EPOPA
Aircraft B38M/M-SDE1FGHILORVWXY/HB1

Departure

Time 2026-04-28 18:34
Airport Chania International Airport (LGSA)

Arrival

Time 2026-04-28 21:14
Airport Copernicus Wrocław Airport (EPWR)
Time Latitude Longitude Altitude Speed Heading
2026-04-28 18:09 35.53756 24.14409 559 ft 0 kts 21°
2026-04-28 18:27 35.53755 24.14408 559 ft 2 kts 21°
2026-04-28 18:27 35.53732 24.14398 526 ft 4 kts 17°
2026-04-28 18:28 35.53706 24.14391 559 ft 4 kts
2026-04-28 18:28 35.53680 24.14392 566 ft 4 kts 336°
2026-04-28 18:28 35.53667 24.14406 563 ft 0 kts 291°
2026-04-28 18:30 35.53667 24.14405 563 ft 0 kts 282°
2026-04-28 18:31 35.53652 24.14373 568 ft 9 kts 218°
2026-04-28 18:31 35.53590 24.14335 565 ft 10 kts 224°
2026-04-28 18:31 35.53597 24.14246 564 ft 14 kts 291°
2026-04-28 18:31 35.53645 24.14098 566 ft 23 kts 291°
2026-04-28 18:32 35.53706 24.13909 560 ft 25 kts 291°
2026-04-28 18:32 35.53771 24.13710 563 ft 26 kts 292°
2026-04-28 18:32 35.53818 24.13552 559 ft 16 kts 271°
2026-04-28 18:32 35.53735 24.13471 559 ft 15 kts 201°
2026-04-28 18:33 35.53674 24.13459 562 ft 7 kts 145°
2026-04-28 18:33 35.53665 24.13478 560 ft 0 kts 111°
2026-04-28 18:33 35.53658 24.13500 560 ft 21 kts 111°
2026-04-28 18:33 35.53495 24.14008 566 ft 105 kts 111°
2026-04-28 18:34 35.53137 24.15121 569 ft 172 kts 111°
2026-04-28 18:34 35.52660 24.16609 1114 ft 195 kts 110°
2026-04-28 18:34 35.52169 24.18209 2075 ft 202 kts 108°
2026-04-28 18:34 35.52137 24.19943 2779 ft 217 kts 69°
2026-04-28 18:35 35.53015 24.21361 3807 ft 206 kts 38°
2026-04-28 18:35 35.54294 24.22205 4694 ft 217 kts 17°
2026-04-28 18:35 35.55867 24.22348 5233 ft 242 kts 349°
2026-04-28 18:35 35.56551 24.22084 5482 ft 250 kts 335°
2026-04-28 18:36 35.57981 24.20742 6166 ft 269 kts 317°
2026-04-28 18:36 35.59383 24.19162 7025 ft 274 kts 319°
2026-04-28 18:36 35.60811 24.17596 8000 ft 278 kts 319°
2026-04-28 18:36 35.62257 24.16028 8931 ft 281 kts 319°
2026-04-28 18:37 35.63735 24.14433 9894 ft 284 kts 319°
2026-04-28 18:37 35.65252 24.12805 10567 ft 297 kts 319°
2026-04-28 18:37 35.66866 24.11089 10990 ft 316 kts 319°
2026-04-28 18:37 35.68569 24.09279 11543 ft 329 kts 319°
2026-04-28 18:38 35.70310 24.07418 12358 ft 332 kts 318°
2026-04-28 18:38 35.72064 24.05535 13164 ft 337 kts 318°
2026-04-28 18:38 35.73814 24.03655 13921 ft 341 kts 318°
2026-04-28 18:38 35.75617 24.01716 14619 ft 344 kts 318°
2026-04-28 18:39 35.77431 23.99762 15334 ft 347 kts 318°
2026-04-28 18:39 35.79261 23.97789 16028 ft 350 kts 318°
2026-04-28 18:39 35.81108 23.95798 16713 ft 353 kts 317°
2026-04-28 18:39 35.82941 23.93820 17377 ft 357 kts 317°
2026-04-28 18:40 35.84819 23.91791 18031 ft 360 kts 317°
2026-04-28 18:40 35.86713 23.89744 18644 ft 363 kts 317°
2026-04-28 18:40 35.88624 23.87678 19210 ft 365 kts 317°
2026-04-28 18:40 35.90541 23.85603 19801 ft 367 kts 317°
2026-04-28 18:41 35.92446 23.83540 20371 ft 369 kts 317°
2026-04-28 18:41 35.94378 23.81445 20933 ft 371 kts 317°
2026-04-28 18:41 35.96325 23.79333 21507 ft 373 kts 317°
2026-04-28 18:41 35.98285 23.77206 22040 ft 375 kts 317°
2026-04-28 18:42 36.00250 23.75071 22578 ft 377 kts 317°
2026-04-28 18:42 36.02229 23.72919 23112 ft 380 kts 317°
2026-04-28 18:42 36.04220 23.70754 23626 ft 382 kts 317°
2026-04-28 18:42 36.06194 23.68604 24049 ft 384 kts 317°
2026-04-28 18:43 36.08207 23.66412 24490 ft 386 kts 317°
2026-04-28 18:43 36.10224 23.64212 24918 ft 387 kts 317°
2026-04-28 18:43 36.12250 23.62001 25340 ft 389 kts 317°
2026-04-28 18:43 36.14293 23.59769 25767 ft 391 kts 317°
2026-04-28 18:44 36.16337 23.57535 26175 ft 393 kts 317°
2026-04-28 18:44 36.20456 23.53028 26968 ft 396 kts 317°
2026-04-28 18:44 36.22504 23.50784 27356 ft 398 kts 317°
2026-04-28 18:45 36.24636 23.48592 27731 ft 401 kts 325°
2026-04-28 18:45 36.27181 23.47145 28136 ft 407 kts 341°
2026-04-28 18:45 36.29982 23.46440 28507 ft 412 kts 346°
2026-04-28 18:45 36.32810 23.45800 28817 ft 415 kts 346°
2026-04-28 18:46 36.35666 23.45180 29178 ft 417 kts 346°
2026-04-28 18:46 36.38538 23.44573 29511 ft 419 kts 347°
2026-04-28 18:46 36.41393 23.43979 29841 ft 421 kts 347°
2026-04-28 18:46 36.44300 23.43377 30168 ft 423 kts 347°
2026-04-28 18:47 36.47218 23.42774 30436 ft 425 kts 347°
2026-04-28 18:47 36.50155 23.42166 30698 ft 427 kts 347°
2026-04-28 18:47 36.53096 23.41558 30959 ft 429 kts 347°
2026-04-28 18:47 36.56060 23.40943 31230 ft 431 kts 347°
2026-04-28 18:48 36.58988 23.40337 31480 ft 433 kts 347°
2026-04-28 18:48 36.61970 23.39718 31731 ft 435 kts 347°
2026-04-28 18:48 36.64968 23.39095 31996 ft 437 kts 347°
2026-04-28 18:48 36.67981 23.38469 32263 ft 439 kts 347°
2026-04-28 18:49 36.71001 23.37841 32607 ft 438 kts 347°
2026-04-28 18:49 36.71980 23.37638 32719 ft 438 kts 347°
2026-04-28 18:49 36.76975 23.36598 33304 ft 437 kts 347°
2026-04-28 18:49 36.79976 23.35972 33653 ft 436 kts 347°
2026-04-28 18:50 36.82982 23.35345 34000 ft 435 kts 347°
2026-04-28 18:50 36.85966 23.34723 34299 ft 434 kts 347°
2026-04-28 18:50 36.88911 23.34108 34566 ft 434 kts 347°
2026-04-28 18:50 36.91888 23.33486 34818 ft 434 kts 347°
2026-04-28 18:51 36.94875 23.32861 35077 ft 434 kts 347°
2026-04-28 18:51 36.97865 23.32235 35312 ft 434 kts 347°
2026-04-28 18:51 37.00848 23.31611 35558 ft 434 kts 347°
2026-04-28 18:51 37.03836 23.30984 35790 ft 434 kts 347°
2026-04-28 18:52 37.06814 23.30359 36015 ft 434 kts 347°
2026-04-28 18:52 37.09763 23.29740 36105 ft 435 kts 347°
2026-04-28 18:52 37.15718 23.28492 36099 ft 433 kts 347°
2026-04-28 18:53 37.21684 23.27236 36097 ft 434 kts 347°
2026-04-28 18:53 37.27612 23.25985 36097 ft 434 kts 347°
2026-04-28 18:54 37.33591 23.24721 36101 ft 434 kts 347°
2026-04-28 18:54 37.39550 23.23460 36097 ft 434 kts 347°
2026-04-28 18:55 37.44523 23.22448 36095 ft 436 kts 352°
2026-04-28 18:55 37.48544 23.22892 36103 ft 444 kts 13°
2026-04-28 18:55 37.51413 23.24395 36106 ft 451 kts 24°
2026-04-28 18:56 37.57009 23.28088 36108 ft 453 kts 25°
2026-04-28 18:56 37.62539 23.31846 36103 ft 453 kts 25°
2026-04-28 18:57 37.68087 23.35658 36101 ft 453 kts 25°
2026-04-28 18:57 37.73605 23.39458 36106 ft 454 kts 25°
2026-04-28 18:58 37.79226 23.43034 36080 ft 447 kts 13°
2026-04-28 18:58 37.85322 23.44222 36078 ft 444 kts
2026-04-28 18:59 37.91463 23.45087 36103 ft 444 kts
2026-04-28 18:59 37.97564 23.45882 36114 ft 443 kts
2026-04-28 19:00 38.03713 23.46672 36091 ft 443 kts
2026-04-28 19:00 38.08826 23.47329 36110 ft 443 kts
2026-04-28 19:01 38.14963 23.48119 36109 ft 443 kts
2026-04-28 19:01 38.21075 23.48907 36101 ft 443 kts
2026-04-28 19:02 38.27211 23.49699 36105 ft 443 kts
2026-04-28 19:02 38.33346 23.50493 36106 ft 443 kts
2026-04-28 19:03 38.39491 23.51289 36105 ft 443 kts
2026-04-28 19:03 38.45579 23.52079 36115 ft 436 kts
2026-04-28 19:04 38.51579 23.52860 36104 ft 436 kts
2026-04-28 19:04 38.57634 23.53648 36105 ft 436 kts
2026-04-28 19:05 38.63666 23.54435 36111 ft 435 kts
2026-04-28 19:05 38.69656 23.55218 36112 ft 435 kts
2026-04-28 19:06 38.75689 23.56008 36116 ft 435 kts
2026-04-28 19:06 38.81723 23.56799 36107 ft 435 kts
2026-04-28 19:07 38.87716 23.57586 36113 ft 435 kts
2026-04-28 19:07 38.93743 23.58379 36115 ft 434 kts
2026-04-28 19:08 38.99775 23.59174 36113 ft 434 kts
2026-04-28 19:08 39.05755 23.59964 36108 ft 434 kts
2026-04-28 19:09 39.11772 23.60759 36107 ft 434 kts
2026-04-28 19:09 39.17763 23.61079 36092 ft 425 kts 346°
2026-04-28 19:10 39.20567 23.59976 36113 ft 420 kts 335°
2026-04-28 19:10 39.23260 23.58618 36103 ft 422 kts 335°
2026-04-28 19:10 39.28704 23.55741 36105 ft 422 kts 334°
2026-04-28 19:11 39.34123 23.52787 36106 ft 422 kts 334°
2026-04-28 19:11 39.39502 23.49830 36104 ft 422 kts 334°
2026-04-28 19:12 39.44909 23.46852 36104 ft 421 kts 334°
2026-04-28 19:12 39.50283 23.43885 36105 ft 421 kts 334°
2026-04-28 19:13 39.55688 23.40897 36103 ft 421 kts 334°
2026-04-28 19:13 39.61092 23.37905 36105 ft 421 kts 334°
2026-04-28 19:14 39.66447 23.34934 36103 ft 421 kts 334°
2026-04-28 19:14 39.71860 23.31926 36104 ft 424 kts 334°
2026-04-28 19:15 39.77304 23.28896 36105 ft 424 kts 334°
2026-04-28 19:15 39.81814 23.26381 36105 ft 424 kts 334°
2026-04-28 19:16 39.88111 23.22865 36106 ft 424 kts 334°
2026-04-28 19:16 39.93548 23.19823 36100 ft 423 kts 334°
2026-04-28 19:17 39.98967 23.16785 36094 ft 423 kts 334°
2026-04-28 19:17 40.04365 23.13755 36095 ft 423 kts 334°
2026-04-28 19:18 40.09788 23.10705 36094 ft 423 kts 334°
2026-04-28 19:18 40.15164 23.07676 36089 ft 423 kts 334°
2026-04-28 19:19 40.20585 23.04616 36089 ft 423 kts 334°
2026-04-28 19:19 40.25998 23.01556 36094 ft 423 kts 334°
2026-04-28 19:20 40.31375 22.98510 36097 ft 423 kts 334°
2026-04-28 19:20 40.36787 22.95440 36098 ft 423 kts 334°
2026-04-28 19:21 40.42179 22.92376 36103 ft 423 kts 334°
2026-04-28 19:21 40.47580 22.89300 36104 ft 422 kts 334°
2026-04-28 19:22 40.52063 22.86744 36103 ft 422 kts 333°
2026-04-28 19:22 40.58364 22.83145 36099 ft 422 kts 333°
2026-04-28 19:23 40.63715 22.80082 36096 ft 422 kts 333°
2026-04-28 19:23 40.69093 22.76999 36091 ft 422 kts 333°
2026-04-28 19:24 40.74471 22.73910 36082 ft 417 kts 334°
2026-04-28 19:24 40.79737 22.70880 36077 ft 413 kts 334°
2026-04-28 19:25 40.85013 22.67839 36077 ft 413 kts 334°
2026-04-28 19:25 40.90288 22.64793 36080 ft 413 kts 334°
2026-04-28 19:26 40.95564 22.61742 36078 ft 413 kts 333°
2026-04-28 19:26 41.00824 22.58695 36080 ft 413 kts 333°
2026-04-28 19:27 41.06090 22.55640 36077 ft 413 kts 333°
2026-04-28 19:27 41.11360 22.52575 36076 ft 413 kts 333°
2026-04-28 19:28 41.13797 22.50637 36067 ft 407 kts 319°
2026-04-28 19:28 41.15976 22.48312 36068 ft 409 kts 320°
2026-04-28 19:28 41.20456 22.43619 36074 ft 409 kts 320°
2026-04-28 19:29 41.24161 22.39675 36076 ft 409 kts 320°
2026-04-28 19:29 41.29319 22.34161 36072 ft 409 kts 319°
2026-04-28 19:30 41.33747 22.29414 36067 ft 409 kts 319°
2026-04-28 19:30 41.38177 22.24658 36068 ft 409 kts 319°
2026-04-28 19:31 41.42606 22.19893 36058 ft 409 kts 319°
2026-04-28 19:31 41.47034 22.15122 36052 ft 409 kts 319°
2026-04-28 19:32 41.55557 22.05912 36045 ft 409 kts 319°
2026-04-28 19:33 41.59971 22.01129 36044 ft 409 kts 319°
2026-04-28 19:33 41.64374 21.96351 36039 ft 409 kts 319°
2026-04-28 19:34 41.68786 21.91553 36040 ft 408 kts 319°
2026-04-28 19:34 41.73199 21.86747 36039 ft 408 kts 319°
2026-04-28 19:35 41.77587 21.81958 36040 ft 408 kts 319°
2026-04-28 19:35 41.81995 21.77138 36045 ft 407 kts 319°
2026-04-28 19:36 41.86379 21.72337 36052 ft 406 kts 319°
2026-04-28 19:36 41.90737 21.67554 36044 ft 406 kts 319°
2026-04-28 19:37 41.94378 21.63552 36051 ft 406 kts 319°
2026-04-28 19:37 41.99489 21.57925 36049 ft 406 kts 319°
2026-04-28 19:38 42.03828 21.53137 36046 ft 406 kts 319°
2026-04-28 19:38 42.08191 21.48316 36052 ft 405 kts 319°
2026-04-28 19:39 42.12551 21.43490 36051 ft 405 kts 319°
2026-04-28 19:39 42.17316 21.39452 36049 ft 411 kts 339°
2026-04-28 19:40 42.22831 21.37260 36052 ft 414 kts 340°
2026-04-28 19:40 42.28360 21.35166 36065 ft 415 kts 341°
2026-04-28 19:41 42.33927 21.33103 36071 ft 414 kts 341°
2026-04-28 19:41 42.39496 21.31044 36082 ft 415 kts 341°
2026-04-28 19:42 42.45037 21.28992 36084 ft 415 kts 341°
2026-04-28 19:42 42.49674 21.27273 36097 ft 415 kts 341°
2026-04-28 19:43 42.56181 21.24855 36096 ft 414 kts 341°
2026-04-28 19:43 42.61748 21.22783 36101 ft 414 kts 340°
2026-04-28 19:44 42.67288 21.20716 36102 ft 414 kts 340°
2026-04-28 19:44 42.72843 21.18641 36092 ft 413 kts 340°
2026-04-28 19:45 42.78399 21.16560 36091 ft 413 kts 340°
2026-04-28 19:45 42.83913 21.14492 36090 ft 413 kts 340°
2026-04-28 19:46 42.89458 21.12409 36087 ft 413 kts 340°
2026-04-28 19:46 42.95006 21.10320 36088 ft 412 kts 340°
2026-04-28 19:47 43.00512 21.08243 36093 ft 412 kts 340°
2026-04-28 19:47 43.06040 21.06154 36099 ft 412 kts 340°
2026-04-28 19:48 43.11585 21.04110 36094 ft 414 kts 344°
2026-04-28 19:48 43.17243 21.02606 36098 ft 414 kts 344°
2026-04-28 19:49 43.22897 21.01038 36097 ft 413 kts 343°
2026-04-28 19:49 43.28496 20.99470 36108 ft 413 kts 343°
2026-04-28 19:50 43.36948 20.97095 36102 ft 411 kts 343°
2026-04-28 19:51 43.42552 20.95516 36104 ft 410 kts 343°
2026-04-28 19:51 43.48112 20.93948 36099 ft 410 kts 343°
2026-04-28 19:52 43.53702 20.92368 36100 ft 410 kts 343°
2026-04-28 19:52 43.59282 20.90787 36104 ft 409 kts 343°
2026-04-28 19:53 43.64860 20.89204 36102 ft 408 kts 343°
2026-04-28 19:53 43.70401 20.87629 36104 ft 408 kts 343°
2026-04-28 19:54 43.75953 20.86048 36106 ft 407 kts 343°
2026-04-28 19:54 43.81507 20.84463 36104 ft 406 kts 343°
2026-04-28 19:55 43.87024 20.82886 36104 ft 406 kts 343°
2026-04-28 19:55 43.92573 20.81296 36101 ft 406 kts 343°
2026-04-28 19:56 43.98112 20.79707 36102 ft 406 kts 343°
2026-04-28 19:56 44.03623 20.78122 36112 ft 406 kts 343°
2026-04-28 19:57 44.09160 20.76527 36104 ft 405 kts 343°
2026-04-28 19:57 44.14688 20.74931 36104 ft 405 kts 342°
2026-04-28 19:58 44.20205 20.73336 36110 ft 404 kts 342°
2026-04-28 19:58 44.25685 20.71748 36102 ft 404 kts 343°
2026-04-28 19:59 44.31190 20.70150 36103 ft 404 kts 342°
2026-04-28 19:59 44.36693 20.68550 36101 ft 403 kts 342°
2026-04-28 20:00 44.42163 20.66956 36101 ft 403 kts 342°
2026-04-28 20:00 44.47655 20.65353 36105 ft 402 kts 342°
2026-04-28 20:01 44.53111 20.63739 36104 ft 401 kts 341°
2026-04-28 20:01 44.58545 20.61967 36107 ft 401 kts 341°
2026-04-28 20:02 44.63976 20.60205 36117 ft 401 kts 341°
2026-04-28 20:02 44.69421 20.58438 36119 ft 400 kts 341°
2026-04-28 20:03 44.74816 20.56685 36113 ft 400 kts 341°
2026-04-28 20:03 44.80232 20.54920 36108 ft 399 kts 341°
2026-04-28 20:04 44.85646 20.53153 36113 ft 399 kts 341°
2026-04-28 20:04 44.91057 20.51384 36130 ft 399 kts 341°
2026-04-28 20:05 44.96432 20.49623 36130 ft 398 kts 341°
2026-04-28 20:05 45.01832 20.47851 36126 ft 398 kts 341°
2026-04-28 20:06 45.07225 20.46078 36126 ft 397 kts 341°
2026-04-28 20:06 45.12616 20.44301 36129 ft 396 kts 341°
2026-04-28 20:07 45.17961 20.42536 36134 ft 396 kts 341°
2026-04-28 20:07 45.23329 20.40760 36132 ft 396 kts 341°
2026-04-28 20:08 45.27793 20.39281 36130 ft 396 kts 341°
2026-04-28 20:08 45.33153 20.37502 36134 ft 395 kts 341°
2026-04-28 20:09 45.38518 20.35718 36134 ft 395 kts 341°
2026-04-28 20:09 45.43881 20.33930 36133 ft 395 kts 341°
2026-04-28 20:10 45.49214 20.32149 36133 ft 396 kts 341°
2026-04-28 20:10 45.54593 20.30350 36136 ft 396 kts 341°
2026-04-28 20:11 45.59964 20.28549 36137 ft 396 kts 341°
2026-04-28 20:11 45.65306 20.26755 36134 ft 396 kts 341°
2026-04-28 20:12 45.70699 20.24940 36132 ft 396 kts 341°
2026-04-28 20:12 45.76044 20.23138 36132 ft 396 kts 341°
2026-04-28 20:13 45.81419 20.21322 36130 ft 396 kts 341°
2026-04-28 20:13 45.86757 20.19514 36136 ft 396 kts 341°
2026-04-28 20:14 45.92127 20.17693 36135 ft 395 kts 341°
2026-04-28 20:14 45.97483 20.15872 36137 ft 395 kts 341°
2026-04-28 20:15 46.02799 20.14062 36138 ft 395 kts 341°
2026-04-28 20:15 46.08157 20.12234 36135 ft 395 kts 341°
2026-04-28 20:16 46.13513 20.10404 36137 ft 394 kts 341°
2026-04-28 20:16 46.18921 20.08937 36140 ft 397 kts 345°
2026-04-28 20:17 46.24355 20.07720 36138 ft 397 kts 345°
2026-04-28 20:17 46.29811 20.06459 36134 ft 396 kts 345°
2026-04-28 20:18 46.35264 20.05191 36139 ft 396 kts 345°
2026-04-28 20:18 46.40672 20.03930 36138 ft 396 kts 345°
2026-04-28 20:19 46.46112 20.02659 36139 ft 395 kts 345°
2026-04-28 20:19 46.51544 20.01387 36137 ft 395 kts 345°
2026-04-28 20:20 46.56972 20.00114 36139 ft 395 kts 345°
2026-04-28 20:20 46.62371 19.98844 36140 ft 394 kts 345°
2026-04-28 20:21 46.67773 19.97572 36140 ft 394 kts 345°
2026-04-28 20:21 46.73190 19.96293 36138 ft 394 kts 344°
2026-04-28 20:22 46.78580 19.95019 36137 ft 393 kts 344°
2026-04-28 20:22 46.83986 19.93738 36133 ft 393 kts 344°
2026-04-28 20:23 46.89395 19.92453 36137 ft 393 kts 344°
2026-04-28 20:23 46.94767 19.91174 36143 ft 393 kts 344°
2026-04-28 20:24 47.00167 19.89887 36133 ft 393 kts 344°
2026-04-28 20:24 47.05560 19.88599 36133 ft 393 kts 344°
2026-04-28 20:25 47.10957 19.87306 36133 ft 392 kts 344°
2026-04-28 20:25 47.16330 19.86017 36132 ft 392 kts 344°
2026-04-28 20:26 47.21728 19.84719 36153 ft 392 kts 344°
2026-04-28 20:26 47.27089 19.83428 36147 ft 392 kts 344°
2026-04-28 20:27 47.32476 19.82128 36154 ft 392 kts 344°
2026-04-28 20:27 47.37869 19.80823 36147 ft 391 kts 344°
2026-04-28 20:28 47.43217 19.79526 36153 ft 392 kts 344°
2026-04-28 20:28 47.48611 19.78216 36158 ft 392 kts 344°
2026-04-28 20:29 47.53971 19.76912 36155 ft 392 kts 344°
2026-04-28 20:29 47.59368 19.75595 36158 ft 393 kts 344°
2026-04-28 20:30 47.64766 19.74276 36162 ft 393 kts 344°
2026-04-28 20:30 47.70141 19.72959 36166 ft 394 kts 344°
2026-04-28 20:31 47.75556 19.71630 36167 ft 394 kts 344°
2026-04-28 20:31 47.80990 19.70294 36174 ft 395 kts 344°
2026-04-28 20:32 47.86391 19.68962 36166 ft 396 kts 344°
2026-04-28 20:32 47.91837 19.67617 36175 ft 397 kts 344°
2026-04-28 20:33 47.97291 19.66267 36175 ft 397 kts 344°
2026-04-28 20:33 48.02715 19.64922 36176 ft 398 kts 344°
2026-04-28 20:34 48.08181 19.63564 36183 ft 398 kts 344°
2026-04-28 20:34 48.13659 19.62200 36187 ft 399 kts 344°
2026-04-28 20:35 48.19151 19.60829 36189 ft 399 kts 344°
2026-04-28 20:35 48.24340 19.58517 36191 ft 385 kts 326°
2026-04-28 20:36 48.29068 19.54634 36192 ft 388 kts 327°
2026-04-28 20:36 48.33789 19.50652 36193 ft 388 kts 326°
2026-04-28 20:37 48.38471 19.46641 36186 ft 388 kts 326°
2026-04-28 20:37 48.43174 19.42594 36192 ft 389 kts 326°
2026-04-28 20:38 48.47843 19.38566 36192 ft 389 kts 326°
2026-04-28 20:38 48.52543 19.34503 36194 ft 389 kts 326°
2026-04-28 20:39 48.57252 19.30423 36199 ft 390 kts 326°
2026-04-28 20:39 48.61933 19.26359 36205 ft 390 kts 326°
2026-04-28 20:40 48.66650 19.22255 36206 ft 391 kts 326°
2026-04-28 20:40 48.71368 19.18141 36211 ft 391 kts 326°
2026-04-28 20:41 48.76065 19.14036 36217 ft 392 kts 326°
2026-04-28 20:41 48.80791 19.09897 36227 ft 392 kts 326°
2026-04-28 20:42 48.85520 19.05745 36240 ft 392 kts 326°
2026-04-28 20:42 48.90224 19.01608 36233 ft 392 kts 326°
2026-04-28 20:43 48.94957 18.97435 36240 ft 393 kts 326°
2026-04-28 20:43 48.99665 18.93275 36234 ft 393 kts 326°
2026-04-28 20:44 49.04401 18.89081 36243 ft 393 kts 326°
2026-04-28 20:44 49.09139 18.84876 36234 ft 393 kts 326°
2026-04-28 20:45 49.13841 18.80693 36246 ft 394 kts 326°
2026-04-28 20:45 49.18578 18.76471 36236 ft 394 kts 326°
2026-04-28 20:46 49.23286 18.72264 36237 ft 381 kts 326°
2026-04-28 20:46 49.25527 18.70260 36247 ft 365 kts 326°
2026-04-28 20:46 49.27676 18.68334 36156 ft 352 kts 326°
2026-04-28 20:46 49.29794 18.66433 35846 ft 358 kts 325°
2026-04-28 20:47 49.31970 18.64479 35339 ft 364 kts 325°
2026-04-28 20:47 49.34153 18.62518 34859 ft 362 kts 325°
2026-04-28 20:47 49.36295 18.60591 34422 ft 360 kts 325°
2026-04-28 20:47 49.38444 18.58657 33904 ft 357 kts 325°
2026-04-28 20:48 49.40581 18.56731 33393 ft 354 kts 325°
2026-04-28 20:48 49.42691 18.54827 32948 ft 350 kts 325°
2026-04-28 20:48 49.44780 18.52940 32522 ft 346 kts 325°
2026-04-28 20:48 49.46846 18.51072 32104 ft 342 kts 325°
2026-04-28 20:49 49.48865 18.49245 31689 ft 338 kts 325°
2026-04-28 20:49 49.50884 18.47416 31293 ft 337 kts 325°
2026-04-28 20:49 49.52940 18.45550 30870 ft 351 kts 325°
2026-04-28 20:49 49.55093 18.43596 30435 ft 361 kts 326°
2026-04-28 20:50 49.57239 18.41646 29970 ft 365 kts 326°
2026-04-28 20:50 49.59437 18.39648 29514 ft 366 kts 326°
2026-04-28 20:50 49.61633 18.37649 29124 ft 366 kts 326°
2026-04-28 20:50 49.63829 18.35647 28715 ft 364 kts 326°
2026-04-28 20:51 49.66011 18.33656 28317 ft 363 kts 326°
2026-04-28 20:51 49.68179 18.31676 27913 ft 361 kts 326°
2026-04-28 20:51 49.70315 18.29723 27529 ft 360 kts 326°
2026-04-28 20:51 49.71769 18.28392 27270 ft 359 kts 326°
2026-04-28 20:52 49.74612 18.25787 26757 ft 357 kts 326°
2026-04-28 20:52 49.76742 18.23833 26370 ft 355 kts 326°
2026-04-28 20:52 49.78870 18.21880 25999 ft 354 kts 326°
2026-04-28 20:52 49.80963 18.19956 25626 ft 352 kts 326°
2026-04-28 20:53 49.85164 18.16089 24891 ft 349 kts 326°
2026-04-28 20:53 49.87250 18.14166 24531 ft 348 kts 326°
2026-04-28 20:53 49.89330 18.12248 24170 ft 346 kts 327°
2026-04-28 20:54 49.91370 18.10364 23804 ft 345 kts 327°
2026-04-28 20:54 49.93425 18.08465 23391 ft 343 kts 327°
2026-04-28 20:54 49.95471 18.06573 23016 ft 342 kts 327°
2026-04-28 20:54 49.97510 18.04685 22668 ft 340 kts 327°
2026-04-28 20:55 49.99540 18.02803 22323 ft 339 kts 327°
2026-04-28 20:55 50.01564 18.00925 21970 ft 337 kts 327°
2026-04-28 20:55 50.03619 17.99182 21582 ft 337 kts 336°
2026-04-28 20:55 50.05828 17.97939 21218 ft 336 kts 337°
2026-04-28 20:56 50.07994 17.96693 20883 ft 335 kts 337°
2026-04-28 20:56 50.10182 17.95433 20549 ft 334 kts 337°
2026-04-28 20:56 50.12360 17.94175 20206 ft 333 kts 337°
2026-04-28 20:56 50.14532 17.92920 19876 ft 332 kts 337°
2026-04-28 20:57 50.16703 17.91663 19525 ft 334 kts 337°
2026-04-28 20:57 50.18884 17.90400 19178 ft 335 kts 338°
2026-04-28 20:57 50.21069 17.89134 18854 ft 334 kts 338°
2026-04-28 20:57 50.23218 17.87886 18501 ft 333 kts 338°
2026-04-28 20:58 50.25392 17.86623 18115 ft 332 kts 338°
2026-04-28 20:58 50.27556 17.85365 17770 ft 330 kts 338°
2026-04-28 20:58 50.29705 17.84114 17427 ft 329 kts 338°
2026-04-28 20:58 50.31851 17.82864 17095 ft 327 kts 338°
2026-04-28 20:59 50.33956 17.81637 16764 ft 326 kts 338°
2026-04-28 20:59 50.36076 17.80399 16425 ft 324 kts 338°
2026-04-28 20:59 50.38081 17.78832 16039 ft 321 kts 328°
2026-04-28 20:59 50.39995 17.77047 15716 ft 319 kts 329°
2026-04-28 21:00 50.41916 17.75309 15399 ft 318 kts 329°
2026-04-28 21:00 50.43835 17.73592 15084 ft 317 kts 330°
2026-04-28 21:00 50.45107 17.72461 14862 ft 316 kts 330°
2026-04-28 21:00 50.47641 17.70218 14436 ft 314 kts 330°
2026-04-28 21:01 50.49540 17.68540 14110 ft 313 kts 330°
2026-04-28 21:01 50.51433 17.66868 13751 ft 311 kts 330°
2026-04-28 21:01 50.53322 17.65198 13404 ft 310 kts 330°
2026-04-28 21:01 50.55198 17.63539 13087 ft 309 kts 330°
2026-04-28 21:02 50.56438 17.62441 12870 ft 308 kts 330°
2026-04-28 21:02 50.58306 17.60787 12550 ft 307 kts 330°
2026-04-28 21:02 50.60164 17.59139 12228 ft 306 kts 330°
2026-04-28 21:02 50.62019 17.57492 11908 ft 305 kts 330°
2026-04-28 21:03 50.63870 17.55849 11591 ft 304 kts 330°
2026-04-28 21:03 50.65685 17.54233 11311 ft 301 kts 330°
2026-04-28 21:03 50.67489 17.52565 10912 ft 300 kts 328°
2026-04-28 21:03 50.69271 17.50786 10290 ft 305 kts 328°
2026-04-28 21:04 50.71059 17.49008 9615 ft 300 kts 328°
2026-04-28 21:04 50.72818 17.47263 9007 ft 295 kts 328°
2026-04-28 21:04 50.74525 17.45571 8592 ft 284 kts 328°
2026-04-28 21:04 50.76164 17.43947 8259 ft 272 kts 329°
2026-04-28 21:05 50.77736 17.42389 7950 ft 262 kts 329°
2026-04-28 21:05 50.79241 17.40894 7666 ft 257 kts 329°
2026-04-28 21:05 50.80755 17.39391 7373 ft 256 kts 329°
2026-04-28 21:05 50.82264 17.37892 7067 ft 255 kts 329°
2026-04-28 21:06 50.83766 17.36399 6780 ft 254 kts 329°
2026-04-28 21:06 50.85249 17.34922 6454 ft 255 kts 329°
2026-04-28 21:06 50.86762 17.33414 5977 ft 260 kts 329°
2026-04-28 21:06 50.88304 17.31877 5578 ft 263 kts 329°
2026-04-28 21:07 50.89851 17.30333 5248 ft 262 kts 329°
2026-04-28 21:07 50.91396 17.28791 4928 ft 261 kts 329°
2026-04-28 21:07 50.92928 17.27259 4619 ft 260 kts 329°
2026-04-28 21:07 50.94447 17.25740 4426 ft 253 kts 329°
2026-04-28 21:08 50.95913 17.24273 4302 ft 245 kts 329°
2026-04-28 21:08 50.97313 17.22872 4161 ft 237 kts 329°
2026-04-28 21:08 50.98678 17.21504 4078 ft 225 kts 329°
2026-04-28 21:08 50.99942 17.20226 4091 ft 207 kts 328°
2026-04-28 21:09 51.00944 17.18640 3914 ft 202 kts 307°
2026-04-28 21:09 51.01641 17.16742 3703 ft 195 kts 298°
2026-04-28 21:09 51.02225 17.14824 3542 ft 191 kts 298°
2026-04-28 21:09 51.02801 17.12931 3265 ft 190 kts 298°
2026-04-28 21:10 51.03372 17.11064 2966 ft 189 kts 298°
2026-04-28 21:10 51.03945 17.09193 2720 ft 185 kts 298°
2026-04-28 21:10 51.04495 17.07399 2625 ft 178 kts 298°
2026-04-28 21:10 51.05022 17.05681 2619 ft 166 kts 298°
2026-04-28 21:11 51.05512 17.04087 2438 ft 155 kts 299°
2026-04-28 21:11 51.05979 17.02562 2236 ft 152 kts 298°
2026-04-28 21:11 51.06444 17.01048 2023 ft 152 kts 298°
2026-04-28 21:11 51.06907 16.99539 1814 ft 152 kts 298°
2026-04-28 21:12 51.07362 16.98054 1609 ft 150 kts 298°
2026-04-28 21:12 51.07819 16.96563 1400 ft 149 kts 298°
2026-04-28 21:12 51.08272 16.95085 1178 ft 147 kts 297°
2026-04-28 21:12 51.08717 16.93624 962 ft 145 kts 297°
2026-04-28 21:13 51.09142 16.92204 753 ft 139 kts 297°
2026-04-28 21:13 51.09562 16.90856 580 ft 133 kts 298°
2026-04-28 21:13 51.09978 16.89536 448 ft 133 kts 297°
2026-04-28 21:13 51.10362 16.88283 418 ft 110 kts 295°
2026-04-28 21:14 51.10595 16.87517 409 ft 44 kts 295°
2026-04-28 21:14 51.10697 16.87261 417 ft 22 kts 342°
2026-04-28 21:14 51.10816 16.87317 419 ft 17 kts 24°
2026-04-28 21:14 51.10924 16.87401 424 ft 16 kts 29°
2026-04-28 21:15 51.10924 16.87555 418 ft 17 kts 114°
2026-04-28 21:15 51.10870 16.87732 421 ft 19 kts 116°
2026-04-28 21:15 51.10809 16.87929 417 ft 19 kts 116°
2026-04-28 21:15 51.10768 16.88061 424 ft 10 kts 115°
2026-04-28 21:16 51.10793 16.88126 421 ft 8 kts 25°
2026-04-28 21:16 51.10819 16.88147 418 ft 0 kts 27°
2026-04-28 21:17 51.10794 16.88259 414 ft 0 kts 24°